Location: Milton Keynes
(52.0316°N, 0.7531°W)
Time: 15:20:09
(UTC+01:00)

Envisat - Pass Details

Date: 29 January 2019
Orbit: 764 x 766 km, 98.1° (Epoch: 14 October)

Event Time Altitude Azimuth Distance (km) Brightness Sun altitude
Rises 17:29:32 0° 132° (SE) 3,226 6.0 -7.1°
Reaches altitude 10° 17:32:02 10° 123° (ESE) 2,304 5.1 -7.5°
Maximum altitude 17:36:28 31° 62° (ENE) 1,314 3.7 -8.1°
Drops below altitude 10° 17:40:55 10° 1° (N) 2,316 5.3 -8.8°
Sets 17:43:26 0° 352° (N) 3,247 6.2 -9.1°
